Presure
219 245 239 228 215 211 209 210 212 200 195 191 134 177 202 194 148 169 183 179 174 146 264 240 300 206 310
215 240 234 209 204 207 208 209 203 197 121 202 201 193 132 184 205 198 193 191 264 212 293 295 295 320 345
215 197 235 214 185 197 197 192 196 199 193 182 188 189 200 190 208 206 210 254 265 117 85 295 309 353 374
218 230 214 149 194 198 195 193 185 178 172 184 186 201 230 229 232 217 229 260 279 291 298 305 337 375 393
240 204 193 186 184 180 176 165 167 184 200 224 210 220 229 232 186 247 198 287 294 295 297 336 381 398 480
186 182 179 173 167 161 161 195 185 199 202 218 218 229 236 245 242 145 276 284 294 307 376 380 385 478 567
177 172 164 161 183 169 174 202 167 214 215 227 228 232 226 241 250 270 277 293 294 354 371 380 469 482 323
163 170 180 182 189 184 202 208 214 215 226 220 128 241 243 247 225 280 286 290 370 367 369 501 488 311 317
172 177 182 197 138 209 165 211 221 226 229 237 216 241 246 247 286 288 295 381 371 360 449 462 320 320 329
182 169 191 199 213 211 207 215 220 183 224 207 236 225 255 284 292 295 343 364 347 491 431 390 327 302 294
174 194 211 210 209 196 153 215 181 226 238 230 237 256 267 302 243 326 354 380 556 440 369 341 300 299 285
187 212 208 180 213 215 215 225 223 234 228 231 252 271 295 309 307 350 394 461 533 378 334 298 285 283 286
207 212 196 218 209 205 223 223 228 228 228 244 246 288 296 306 324 381 422 557 325 336 291 282 268 277 289
211 195 218 203 206 219 220 232 224 229 239 243 284 300 293 306 365 386 580 349 302 283 274 271 274 289 290
206 215 131 201 224 220 222 225 233 238 245 278 295 289 294 298 368 451 460 290 281 276 273 282 284 287 283
131 203 210 222 224 221 211 236 223 245 271 292 282 291 313 360 368 528 332 313 265 267 270 280 279 277 250
206 216 226 221 217 224 229 226 241 263 275 284 288 313 301 346 478 333 310 279 268 272 273 276 283 297 299
Wind_Speed
90 76 71 61 59 63 67 70 72 74 76 77 73 87 91 94 87 102 109 117 112 82 119 112 124 110 124
88 79 75 64 65 68 72 73 75 78 64 84 87 89 89 100 109 115 120 112 127 116 124 125 125 129 120
88 70 81 69 68 72 75 76 80 84 82 85 91 96 104 108 113 120 109 128 127 48 31 129 132 121 109
91 82 76 64 74 77 81 80 82 83 82 92 96 102 115 118 119 126 131 130 131 130 129 130 126 111 107
97 72 73 73 74 75 75 75 84 92 95 104 105 111 120 121 114 139 118 132 132 131 128 128 112 110 94
70 68 72 70 71 73 77 92 91 99 92 106 113 119 121 131 135 63 134 133 133 133 114 110 105 94 52
72 69 70 71 84 82 85 97 87 105 104 109 119 119 119 134 139 138 137 134 132 121 111 103 89 56 37
74 75 83 87 91 91 99 99 106 112 118 106 51 125 133 136 109 132 133 131 111 108 103 82 66 42 40
80 83 90 100 76 103 87 104 113 120 123 119 103 129 132 136 124 127 128 105 105 102 90 64 33 34 29
88 82 99 102 105 105 104 113 116 98 118 92 131 123 133 122 119 125 119 110 103 85 63 38 25 25 25
87 101 106 105 106 93 79 109 97 115 130 127 135 141 136 126 86 120 115 107 69 55 40 32 24 19 25
96 106 106 94 113 116 118 121 116 130 129 140 142 138 125 120 119 116 104 89 53 40 37 27 28 24 26
104 108 98 116 114 109 122 117 126 129 137 146 147 127 124 125 123 108 98 62 47 41 33 32 31 32 30
108 96 115 109 114 118 116 120 123 134 141 145 127 122 119 122 120 106 71 39 33 41 36 40 41 42 36
107 114 67 105 121 117 118 123 133 134 139 126 117 115 117 113 106 90 59 37 44 43 43 42 45 46 43
65 107 116 118 121 119 94 133 112 136 126 118 110 110 114 104 102 64 55 33 43 48 49 47 49 56 38
110 119 119 118 112 122 132 123 135 129 120 111 111 116 94 88 77 70 53 50 46 49 51 55 59 64 64
Wind_Direction
315 310 306 301 297 296 294 293 293 289 288 288 292 289 293 291 294 286 291 282 286 302 307 307 312 302 310
312 305 303 297 296 296 297 295 294 293 296 296 297 295 290 291 297 290 286 294 314 303 314 312 312 312 311
308 295 302 298 295 299 297 298 299 298 300 297 299 297 299 294 302 298 311 314 313 300 317 313 313 312 314
308 299 299 285 300 300 301 300 298 296 294 299 298 301 312 311 313 304 304 315 315 314 313 313 314 315 311
304 296 298 297 296 297 295 292 294 298 301 311 309 312 313 316 304 317 311 316 314 313 314 315 316 315 307
294 296 295 291 290 290 290 301 299 304 308 315 313 315 318 320 318 305 318 316 314 315 317 318 317 311 300
291 290 288 289 297 294 297 303 294 310 314 315 315 318 318 321 319 320 317 315 315 318 316 317 312 307 301
288 291 297 298 300 299 304 309 312 313 313 316 313 319 323 321 318 317 315 314 317 316 317 311 306 297 300
292 297 298 299 289 305 299 312 313 313 315 318 313 323 322 321 319 316 315 320 316 319 315 307 294 299 293
297 295 297 299 304 307 311 312 314 311 314 310 323 314 322 321 319 317 322 322 321 314 309 303 291 298 302
297 296 299 303 306 308 304 313 308 315 317 324 323 322 320 321 319 322 325 323 317 313 306 319 306 306 311
294 299 303 300 307 310 311 312 316 317 323 323 323 322 320 320 321 326 327 324 318 312 315 314 317 315 313
297 301 304 304 309 312 310 314 316 323 322 321 322 320 322 323 325 329 327 321 311 313 318 314 307 315 311
299 303 302 307 309 307 310 314 321 322 321 322 320 321 323 324 328 329 321 325 313 313 313 315 315 314 311
300 299 299 306 305 309 315 318 318 320 323 318 320 323 324 325 329 326 322 309 314 311 310 323 316 310 311
295 303 303 303 306 315 315 315 320 323 318 318 318 322 325 330 326 327 320 311 311 308 321 322 315 306 303
300 299 302 308 314 313 314 317 321 318 317 318 320 325 322 331 328 312 312 320 314 314 321 319 314 309 307